HS6TUX-4 Weather Reports


time (UTC)temp
C
wind
direction
speed
KPH
gust
KPH
rain 1hr
cm
rain 24hr
cm
rain mn
cm
humidity
%
barometer
mb
20260504080711 42 0 0.0 0.0 0.00 0.00 0.00 69 742.0
20260504050133 43 0 0.0 0.0 0.00 0.00 0.00 80 742.0
20260504044604 43 0 0.0 0.0 0.00 0.00 0.00 79 743.0
20260504043036 44 0 0.0 0.0 0.00 0.00 0.00 82 744.0
20260504041508 43 0 0.0 0.0 0.00 0.00 0.00 84 742.0
20260504035940 43 0 0.0 0.0 0.00 0.00 0.00 83 743.0
20260504034412 41 0 0.0 0.0 0.00 0.00 0.00 89 740.0
20260504032844 41 0 0.0 0.0 0.00 0.00 0.00 89 741.0
20260504031316 42 0 0.0 0.0 0.00 0.00 0.00 87 741.0
20260504025747 42 0 0.0 0.0 0.00 0.00 0.00 89 741.0
20260504024219 41 0 0.0 0.0 0.00 0.00 0.00 90 740.0
20260504022651 43 0 0.0 0.0 0.00 0.00 0.00 87 743.0
20260504021123 40 0 0.0 0.0 0.00 0.00 0.00 97 739.0
20260504013621 43 0 0.0 0.0 0.00 0.00 0.00 96 742.0
20260504012053 37 0 0.0 0.0 0.00 0.00 0.00 99 736.0
20260504010525 36 0 0.0 0.0 0.00 0.00 0.00 99 735.0
20260504004956 37 0 0.0 0.0 0.00 0.00 0.00 99 736.0
20260504003428 33 0 0.0 0.0 0.00 0.00 0.00 99 732.0
20260504001900 32 0 0.0 0.0 0.00 0.00 0.00 99 731.0
20260504000332 28 0 0.0 0.0 0.00 0.00 0.00 99 726.0
20260503234804 28 0 0.0 0.0 0.00 0.00 0.00 99 726.0
20260503233235 27 0 0.0 0.0 0.00 0.00 0.00 99 724.0
20260503231707 27 0 0.0 0.0 0.00 0.00 0.00 99 724.0
20260503230139 26 0 0.0 0.0 0.00 0.00 0.00 99 724.0
20260503224610 26 0 0.0 0.0 0.00 0.00 0.00 99 723.0
20260503223042 26 0 0.0 0.0 0.00 0.00 0.00 99 723.0
20260503221513 26 0 0.0 0.0 0.00 0.00 0.00 99 723.0
20260503215945 26 0 0.0 0.0 0.00 0.00 0.00 99 724.0
20260503214417 27 0 0.0 0.0 0.00 0.00 0.00 99 724.0
20260503212848 27 0 0.0 0.0 0.00 0.00 0.00 99 724.0
20260503211320 27 0 0.0 0.0 0.00 0.00 0.00 99 724.0
20260503205752 27 0 0.0 0.0 0.00 0.00 0.00 99 724.0
20260503204224 27 0 0.0 0.0 0.00 0.00 0.00 99 725.0
20260503202656 27 0 0.0 0.0 0.00 0.00 0.00 99 725.0
20260503201127 27 0 0.0 0.0 0.00 0.00 0.00 99 725.0
20260503195559 27 0 0.0 0.0 0.00 0.00 0.00 99 724.0
20260503194030 28 0 0.0 0.0 0.00 0.00 0.00 99 725.0
20260503192502 28 0 0.0 0.0 0.00 0.00 0.00 99 725.0
20260503190934 28 0 0.0 0.0 0.00 0.00 0.00 99 726.0
20260503185406 29 0 0.0 0.0 0.00 0.00 0.00 99 726.0
20260503183838 28 0 0.0 0.0 0.00 0.00 0.00 99 726.0
20260503182310 28 0 0.0 0.0 0.00 0.00 0.00 99 726.0
20260503180741 28 0 0.0 0.0 0.00 0.00 0.00 99 726.0
20260503175213 28 0 0.0 0.0 0.00 0.00 0.00 99 726.0
20260503173645 28 0 0.0 0.0 0.00 0.00 0.00 99 726.0
20260503172117 28 0 0.0 0.0 0.00 0.00 0.00 99 726.0
20260503170548 29 0 0.0 0.0 0.00 0.00 0.00 99 727.0
20260503150202 30 0 0.0 0.0 0.00 0.00 0.00 99 728.0
20260503131345 33 0 0.0 0.0 0.00 0.00 0.00 82 731.0